Wind_Speed
21 22 24 26 27 28 30 32 33 36 39 42 44 45 45 45 46 47 48 51 54 56 58 60 65 69 70 72 73 72 73 75 75 75 75 72 67 61 56 55 52 50 47 43
22 24 27 29 30 31 32 33 35 37 40 43 46 49 50 52 56 58 60 62 64 66 68 68 70 74 77 77 76 75 75 75 72 72 72 70 69 69 70 68 63 56 49 45
25 27 30 31 30 32 33 34 36 40 46 50 53 56 58 61 65 68 71 73 75 76 77 77 78 79 81 84 87 89 89 86 83 80 78 79 80 80 81 77 69 61 53 48
25 26 26 28 30 33 35 37 41 47 52 55 59 63 66 70 74 78 80 82 83 82 80 78 75 72 71 71 72 74 76 78 81 84 86 86 86 84 81 76 69 64 58 51
23 25 30 30 33 37 41 44 48 52 56 60 64 68 73 77 81 83 82 79 74 68 62 55 48 43 40 40 42 44 46 49 52 56 61 66 69 70 69 68 65 61 58 52
26 28 31 35 37 41 45 49 54 57 61 66 71 75 77 79 79 74 66 57 50 42 37 34 34 36 38 40 40 39 39 40 39 38 38 42 46 51 55 57 57 56 53 49
27 31 34 37 41 44 48 53 56 61 66 71 75 77 76 69 58 49 41 35 32 32 34 37 41 44 46 46 45 44 44 43 41 37 34 34 36 39 44 49 53 54 52 49
31 34 39 42 45 49 53 57 61 66 71 75 76 71 59 48 40 35 32 33 36 39 43 46 48 49 49 49 49 49 48 46 44 39 34 32 31 30 31 34 40 47 52 55
34 37 41 46 50 54 57 60 65 70 75 76 70 56 43 36 34 35 38 41 45 47 49 50 51 52 51 51 52 53 52 50 47 44 38 33 29 26 25 26 27 33 44 55
37 40 44 48 52 55 59 64 70 75 77 72 57 44 37 36 38 41 44 46 49 50 50 49 50 51 53 54 55 56 55 52 49 46 43 37 32 28 26 26 27 28 34 47
43 46 48 51 55 59 63 69 74 77 73 62 48 40 38 40 43 47 49 51 53 53 51 50 49 50 51 53 55 54 51 48 46 45 43 40 36 31 29 30 30 31 33 40
45 48 50 54 58 62 67 71 76 76 67 51 43 40 42 45 49 52 53 55 54 53 53 51 50 50 50 51 51 49 45 41 40 40 42 41 37 34 32 31 33 32 32 34
47 49 52 56 60 64 69 74 76 72 59 45 40 42 45 49 52 55 56 55 55 55 54 51 49 47 46 46 45 42 37 33 32 34 38 39 38 35 32 31 32 32 32 32
50 52 53 57 61 66 72 76 76 67 51 42 41 43 48 52 54 55 55 54 55 55 52 48 45 44 42 40 38 34 27 22 23 29 34 36 36 34 32 31 31 31 31 31
49 52 55 59 62 68 74 78 75 60 44 39 41 46 51 53 54 54 54 53 53 50 46 42 41 39 36 34 30 25 17 13 16 24 29 31 32 33 32 31 31 31 31 32
50 53 57 60 63 69 76 79 72 55 41 39 44 49 52 54 54 54 52 51 50 46 41 38 37 34 30 27 22 15 9 7 13 19 23 27 29 30 31 31 32 33 34 35
51 55 58 61 64 70 76 77 68 51 41 43 47 51 53 54 52 50 49 48 46 42 39 35 33 29 24 19 13 7 1 5 12 17 21 24 25 26 27 29 32 35 36 38
52 55 59 62 65 70 76 75 64 48 43 45 50 52 53 51 49 48 48 48 44 40 36 33 29 25 18 11 6 4 6 9 13 17 20 21 22 23 24 26 29 33 38 41
52 55 58 61 65 70 75 73 60 45 43 46 50 51 50 48 48 48 49 48 47 42 36 32 26 20 13 8 8 10 12 14 16 18 20 20 22 24 26 29 32 36 39 42
52 54 57 61 64 69 74 70 57 44 43 47 49 49 46 45 46 47 48 47 46 42 37 32 26 18 15 14 14 15 17 19 21 23 25 28 31 32 33 36 39 42 42 41
51 53 57 60 63 68 72 69 56 43 42 46 48 46 43 43 45 47 46 45 45 43 39 33 28 24 22 21 22 23 25 27 30 32 34 35 37 39 40 41 42 41 39 36
50 52 56 59 62 66 70 67 55 42 40 43 44 41 40 40 42 44 44 46 45 45 42 37 32 30 29 30 30 32 34 36 37 37 38 38 39 39 40 39 37 36 34 31
49 52 55 58 60 64 68 65 53 39 37 39 39 37 36 37 41 42 43 45 45 44 43 39 35 33 34 35 37 39 40 40 39 38 37 35 34 34 34 34 33 32 31 30
48 50 53 57 59 62 66 63 52 37 33 36 36 32 30 31 34 37 38 39 39 39 38 36 33 31 32 34 37 37 37 37 35 33 31 31 31 31 31 31 29 28 28 27
47 49 52 55 57 60 64 63 51 34 28 30 31 28 26 26 28 31 32 32 32 32 31 31 29 27 27 28 29 30 31 31 31 30 30 30 29 28 27 25 24 23 23 23
47 49 51 54 56 58 61 61 52 35 25 25 26 23 21 21 22 25 26 26 25 24 24 25 25 24 23 23 23 23 24 25 25 25 26 26 26 25 24 23 22 21 20 19
46 48 50 52 54 57 59 59 54 39 25 21 22 21 18 16 16 18 21 22 20 18 17 18 19 20 20 20 20 19 19 18 18 19 19 19 20 21 21 20 18 16 15 16
Wind_Direction
316 313 312 311 312 311 310 309 308 306 304 304 304 304 303 301 298 296 294 293 291 290 289 287 282 278 277 275 268 263 260 260 261 264 266 264 261 261 266 275 279 281 283 283
319 317 316 317 319 315 313 311 310 308 306 306 306 305 305 304 302 299 297 294 291 288 285 282 279 275 271 268 264 267 271 267 261 259 258 256 255 259 269 276 277 277 277 277
323 322 319 321 321 315 313 313 313 311 310 309 308 307 307 305 301 299 297 294 291 289 286 284 281 278 276 273 271 272 273 272 268 264 261 261 262 264 269 272 273 272 271 271
325 322 322 322 317 314 314 314 312 310 309 310 310 310 309 306 303 300 297 294 292 291 291 290 289 288 286 284 283 282 281 279 276 272 269 267 266 266 267 268 268 267 265 264
329 327 322 324 320 319 318 317 314 313 313 314 313 311 310 307 303 300 299 299 299 298 298 297 296 295 296 298 297 296 294 290 286 281 276 271 267 265 264 262 261 259 258 256
331 328 326 324 323 322 320 318 318 318 317 316 314 312 310 306 305 305 305 304 303 301 300 300 301 302 302 303 301 299 298 298 298 297 291 281 271 260 252 248 247 246 245 243
328 324 323 323 323 321 321 320 319 319 319 318 317 315 314 313 314 314 313 311 309 307 304 302 301 300 300 298 296 293 291 290 290 293 293 287 279 266 254 244 238 232 227 224
328 326 326 324 323 324 323 323 323 323 323 322 321 319 319 320 321 319 316 312 309 307 304 303 302 300 298 295 292 288 286 285 283 283 284 284 280 269 254 245 239 231 220 211
329 328 325 326 327 327 326 326 325 326 327 325 323 322 322 322 321 318 316 313 311 308 306 304 302 300 297 295 292 288 284 280 276 273 272 273 272 264 249 239 236 230 221 212
328 326 327 328 327 326 327 329 330 330 329 326 324 324 324 323 322 321 319 317 314 311 308 304 301 298 297 296 295 292 286 280 273 266 261 259 260 256 245 237 233 227 221 215
328 327 329 330 330 330 333 333 332 333 330 327 325 325 324 324 324 323 322 320 318 316 312 308 304 300 299 299 299 296 290 279 270 259 251 248 248 249 243 236 231 226 222 218
332 332 333 334 334 334 335 334 335 335 332 327 324 324 323 324 325 324 323 322 320 319 315 311 307 304 302 302 302 299 291 280 266 252 241 237 238 239 238 234 228 224 222 220
335 336 336 336 337 336 336 337 339 337 333 329 326 325 324 325 326 326 324 322 320 319 316 313 309 307 306 306 306 303 295 280 260 241 230 227 228 230 231 229 224 220 219 217
336 337 338 338 338 338 339 341 341 340 335 331 330 329 329 328 329 328 326 324 323 321 319 317 313 311 310 310 310 307 298 278 249 227 221 220 220 222 224 221 218 215 213 211
336 337 339 339 339 340 342 344 344 344 339 335 334 334 333 332 332 331 330 329 327 325 323 320 318 317 316 315 314 310 300 269 233 215 212 211 212 213 215 213 211 209 206 202
336 338 340 340 341 342 344 346 346 346 342 340 339 338 337 336 335 335 334 333 331 330 327 325 324 325 324 321 318 314 298 245 209 201 201 202 202 204 207 206 205 205 202 199
337 339 341 342 342 344 346 348 348 346 345 344 342 342 341 340 341 341 341 339 337 336 335 334 334 334 335 332 328 330 313 177 181 183 185 188 191 196 200 200 199 199 199 196
338 340 342 342 343 345 348 350 350 347 347 346 346 346 346 348 350 350 349 347 346 345 344 343 342 345 349 354 7 61 106 132 152 162 167 174 180 185 186 185 185 186 187 185
338 340 342 343 344 346 349 352 351 350 348 349 351 353 353 354 355 355 355 355 356 357 357 359 2 5 19 45 82 95 105 120 136 146 153 157 156 153 152 152 155 158 163 167
338 340 342 344 344 346 349 352 352 351 351 353 356 358 358 358 359 359 0 2 4 7 8 12 21 35 59 81 95 101 108 118 125 129 130 128 127 129 134 138 142 145 150 154
338 341 343 344 345 347 350 353 353 352 354 357 0 1 2 3 3 5 10 14 17 20 24 30 43 61 79 93 101 105 109 114 116 116 117 118 121 127 132 136 138 142 146 150
338 341 343 345 346 347 351 354 354 353 356 359 2 4 5 8 12 17 22 25 27 31 37 46 59 74 88 98 103 106 109 111 113 116 120 122 124 126 130 134 137 142 146 150
338 341 343 345 347 348 351 355 356 353 355 359 3 7 9 12 17 22 28 30 33 37 44 53 68 82 92 98 101 104 106 109 111 114 118 123 127 131 134 137 140 144 148 153
338 340 343 345 347 349 351 355 356 353 353 357 1 6 11 16 22 26 29 31 35 40 47 57 69 83 93 99 101 104 106 108 110 112 117 124 130 134 137 140 142 146 151 156
337 340 343 345 347 349 351 354 357 354 351 354 357 2 9 15 21 26 29 33 37 43 50 58 69 82 93 99 101 105 108 110 111 112 115 122 129 133 136 139 142 145 148 153
336 339 342 344 346 348 351 354 356 355 349 349 353 358 5 12 19 24 29 34 38 44 51 60 71 82 92 99 105 110 116 119 121 122 125 129 134 137 139 140 141 143 147 153
335 338 341 343 345 347 350 352 355 354 349 346 349 353 359 7 14 20 25 32 39 47 57 67 76 84 91 98 105 113 121 128 134 139 143 146 148 147 146 145 145 144 146 150
Height
5844 5840 5836 5832 5829 5825 5821 5817 5812 5807 5800 5793 5785 5779 5773 5768 5762 5757 5751 5745 5739 5733 5727 5721 5716 5710 5705 5700 5695 5691 5690 5689 5687 5686 5686 5687 5689 5692 5694 5697 5699 5701 5703 5705
5839 5835 5830 5827 5823 5818 5814 5809 5803 5797 5791 5784 5776 5769 5762 5755 5748 5741 5734 5727 5720 5713 5706 5701 5695 5689 5684 5679 5675 5672 5670 5668 5666 5665 5664 5665 5666 5669 5673 5678 5682 5685 5688 5691
5835 5830 5825 5820 5817 5810 5806 5801 5795 5787 5781 5772 5764 5756 5748 5740 5731 5722 5713 5704 5694 5686 5679 5673 5667 5662 5657 5653 5649 5645 5642 5642 5641 5641 5642 5644 5645 5647 5651 5655 5661 5666 5671 5675
5830 5826 5821 5819 5811 5805 5799 5793 5786 5778 5769 5759 5750 5740 5731 5720 5708 5698 5687 5676 5666 5657 5650 5644 5639 5634 5629 5626 5620 5616 5612 5610 5610 5610 5612 5614 5617 5620 5625 5632 5638 5645 5652 5658
5825 5820 5814 5811 5804 5796 5788 5781 5773 5764 5755 5745 5734 5724 5714 5698 5684 5671 5659 5648 5639 5631 5625 5620 5615 5611 5608 5605 5600 5595 5591 5588 5586 5584 5584 5585 5588 5592 5597 5605 5613 5621 5630 5638
5819 5815 5810 5803 5795 5786 5779 5770 5759 5750 5740 5729 5717 5705 5696 5678 5661 5647 5636 5627 5619 5614 5609 5605 5601 5598 5595 5592 5588 5584 5579 5576 5573 5569 5567 5565 5564 5566 5569 5576 5586 5596 5607 5618
5815 5809 5802 5796 5787 5780 5772 5763 5751 5739 5727 5713 5699 5683 5668 5654 5641 5629 5621 5614 5609 5604 5599 5595 5590 5586 5581 5578 5574 5570 5566 5563 5561 5558 5555 5552 5550 5549 5550 5554 5561 5571 5584 5597
5809 5803 5796 5786 5778 5770 5760 5748 5736 5724 5710 5695 5679 5662 5647 5635 5626 5619 5612 5607 5601 5595 5590 5583 5576 5570 5566 5561 5557 5552 5549 5548 5547 5546 5544 5542 5539 5538 5538 5540 5545 5552 5563 5576
5804 5798 5788 5777 5767 5758 5747 5736 5723 5709 5693 5676 5659 5646 5635 5626 5619 5611 5604 5597 5590 5583 5576 5569 5561 5554 5548 5543 5537 5533 5530 5529 5529 5529 5530 5530 5530 5530 5530 5532 5536 5541 5549 5559
5795 5788 5780 5770 5760 5749 5737 5723 5708 5691 5675 5658 5644 5634 5626 5619 5611 5604 5595 5587 5578 5569 5561 5553 5545 5537 5530 5523 5517 5511 5507 5506 5507 5509 5513 5517 5519 5520 5523 5526 5529 5534 5540 5547
5787 5778 5770 5761 5749 5736 5724 5709 5694 5677 5659 5643 5632 5625 5617 5610 5602 5593 5584 5574 5563 5553 5544 5536 5528 5520 5512 5503 5495 5488 5484 5482 5483 5487 5494 5501 5506 5510 5514 5518 5522 5527 5532 5538
5781 5771 5761 5750 5738 5725 5712 5698 5682 5665 5648 5634 5623 5616 5609 5600 5591 5581 5571 5560 5549 5539 5529 5519 5511 5503 5494 5485 5476 5468 5463 5461 5462 5467 5475 5484 5492 5498 5504 5509 5514 5520 5526 5532
5772 5763 5752 5740 5729 5716 5702 5686 5669 5651 5635 5624 5616 5608 5600 5591 5581 5570 5558 5546 5535 5524 5513 5504 5495 5486 5478 5469 5460 5452 5446 5444 5445 5450 5459 5469 5479 5487 5494 5500 5506 5513 5519 5527
5764 5755 5745 5734 5722 5708 5693 5676 5658 5641 5626 5616 5609 5602 5592 5582 5570 5558 5545 5533 5521 5509 5498 5488 5479 5471 5463 5455 5446 5439 5434 5432 5434 5439 5448 5458 5469 5478 5485 5492 5499 5506 5513 5521
5760 5749 5738 5727 5714 5700 5684 5666 5650 5634 5621 5613 5605 5595 5584 5572 5559 5546 5533 5520 5507 5495 5484 5475 5467 5459 5451 5443 5436 5430 5426 5426 5429 5434 5443 5451 5461 5470 5478 5485 5492 5500 5509 5518
5754 5742 5731 5719 5706 5692 5675 5659 5642 5628 5617 5609 5601 5590 5577 5563 5549 5536 5522 5509 5496 5484 5474 5464 5456 5449 5441 5435 5429 5425 5423 5424 5427 5433 5440 5448 5456 5464 5472 5480 5487 5495 5506 5516
5747 5736 5724 5712 5699 5684 5668 5651 5635 5621 5613 5605 5595 5584 5570 5556 5542 5529 5515 5502 5488 5476 5465 5456 5448 5441 5434 5429 5426 5424 5424 5425 5429 5434 5440 5447 5455 5462 5468 5475 5483 5492 5503 5514
5740 5729 5717 5705 5692 5678 5663 5647 5631 5618 5610 5601 5590 5578 5564 5550 5537 5524 5511 5497 5484 5472 5460 5450 5442 5435 5430 5427 5426 5426 5427 5429 5432 5437 5443 5449 5455 5461 5467 5474 5481 5490 5501 5513
5735 5724 5713 5700 5686 5672 5658 5643 5628 5616 5608 5598 5587 5575 5561 5549 5536 5523 5510 5495 5482 5469 5458 5448 5440 5434 5430 5430 5430 5431 5433 5435 5438 5442 5447 5451 5456 5462 5469 5476 5483 5493 5504 5518
5729 5719 5708 5695 5682 5669 5654 5640 5625 5614 5606 5596 5586 5574 5562 5551 5539 5526 5513 5498 5484 5471 5460 5450 5443 5437 5435 5435 5437 5439 5441 5443 5446 5449 5453 5458 5464 5471 5478 5485 5494 5504 5516 5527
5724 5714 5703 5692 5679 5665 5651 5637 5624 5613 5605 5596 5586 5576 5566 5555 5544 5531 5518 5505 5493 5480 5469 5459 5452 5447 5445 5446 5447 5449 5452 5454 5457 5461 5466 5471 5478 5484 5492 5500 5509 5518 5528 5537
5718 5709 5699 5688 5676 5662 5649 5635 5623 5612 5605 5597 5589 5580 5571 5562 5552 5540 5528 5516 5505 5494 5483 5475 5468 5464 5461 5461 5462 5464 5466 5469 5473 5477 5482 5488 5494 5500 5508 5515 5522 5530 5538 5545
5713 5704 5694 5684 5672 5660 5647 5633 5621 5612 5605 5599 5592 5584 5576 5568 5559 5549 5540 5530 5520 5511 5503 5495 5489 5485 5482 5481 5481 5482 5484 5487 5491 5495 5500 5504 5510 5516 5521 5528 5534 5541 5547 5553
5708 5699 5690 5680 5669 5658 5646 5633 5622 5612 5606 5601 5595 5588 5582 5576 5568 5560 5551 5544 5536 5529 5522 5516 5511 5507 5504 5502 5502 5502 5504 5506 5509 5512 5516 5520 5525 5529 5534 5539 5545 5550 5555 5560
5703 5694 5686 5677 5666 5656 5644 5632 5622 5613 5608 5603 5598 5592 5586 5581 5575 5569 5562 5556 5550 5544 5538 5533 5529 5526 5523 5522 5521 5521 5522 5524 5526 5528 5531 5534 5538 5541 5545 5549 5553 5557 5561 5565
5698 5690 5681 5673 5663 5653 5642 5631 5621 5612 5608 5604 5599 5594 5589 5585 5581 5576 5571 5565 5560 5555 5550 5546 5542 5539 5538 5536 5536 5536 5537 5538 5539 5541 5543 5545 5548 5551 5553 5556 5560 5563 5567 5570
5692 5685 5678 5669 5660 5650 5640 5629 5619 5611 5605 5602 5599 5595 5590 5587 5583 5580 5576 5572 5568 5564 5560 5556 5552 5550 5548 5547 5546 5546 5546 5547 5548 5550 5551 5553 5555 5557 5560 5562 5565 5568 5571 5573